Regional Weather Roundup
Issued by NWS

Home | Current Version | Previous Version | Graphics & Text | Print | Product List | Glossary On
Versions: 1 2 3 4 5 6 7 8 9 10 11 12 13 14 15 16 17 18 19 20 21 22 23 24 25 26 27 28 29 30 31 32 33 34 35 36 37 38 39 40 41 42 43 44 45 46 47 48 49 50
000
ASUS45 KCYS 311110
RWRWY

WYOMING REGIONAL WEATHER ROUNDUP
NATIONAL WEATHER SERVICE CHEYENNE WY
500 AM MDT SUN AUG 31 2014

NOTE:  "FAIR" INDICATES FEW OR NO CLOUDS BELOW 12,000 FEET
WITH NO SIGNIFICANT WEATHER AND/OR OBSTRUCTIONS TO VISIBILITY.

WYZ001-311200-
YELLOWSTONE NATIONAL PARK

CITY           SKY/WX    TMP DP  RH WIND       PRES   REMARKS
LK YELLOWSTONE   N/A     39  37  92 CALM      30.03F
W YELLOWSTONE  NOT AVBL

$$
WYZ002>013-054>058-071-098>099-311200-
NORTHERN WYOMING

CITY           SKY/WX    TMP DP  RH WIND       PRES   REMARKS
JACKSON        CLOUDY    46  45  93 N7        29.98S
CODY           CLOUDY    55  41  58 W7        29.87R
GREYBULL       CLOUDY    53  52  96 E3        29.83S
WORLAND        CLOUDY    54  52  93 NW3       29.85S
SHERIDAN       CLOUDY    53  49  86 SW6       29.80F
BUFFALO        CLOUDY    56  47  71 CALM      29.86S
GILLETTE       CLOUDY    54  51  90 SW7       29.83R
HULETT         FAIR      52  48  87 MISG      29.83
NEWCASTLE      FAIR      50  50 100 CALM      29.84

$$
WYZ014>020-022>026-101>103-311200-
CENTRAL WYOMING

CITY           SKY/WX    TMP DP  RH WIND       PRES   REMARKS
BIG PINEY      MOCLDY    45  42  89 W7        30.02S
PINEDALE       PTSUNNY   43  43 100 NW5       30.02S
DUBOIS         PTSUNNY   45  36  70 W10G18    29.94F
LANDER         MOCLDY    55  42  61 SW12      29.86F
RIVERTON       CLOUDY    52  48  86 S5        29.87F
CASPER         LGT RAIN  53  48  83 W9        29.95R
DOUGLAS        CLOUDY    53  51  93 W3        29.91F

$$
WYZ021-027>030-104>119-311200-
SOUTHERN WYOMING

CITY           SKY/WX    TMP DP  RH WIND       PRES   REMARKS
EVANSTON       CLOUDY    50  43  77 N5        30.06R
KEMMERER       LGT RAIN  46  43  87 W15G23    30.07R
FORT BRIDGER     N/A     51  47  85 NW8       30.08R
ROCK SPRINGS   CLOUDY    49  41  74 N6        30.01F
DIXON          RAIN      53  49  89 E7        30.04S
RAWLINS        CLOUDY    51  47  86 S7        29.99S
SARATOGA       RAIN      48  46  93 S17       30.05R
LARAMIE        CLOUDY    48  46  93 N10       30.04R
CHEYENNE       CLOUDY    59  45  59 NW10      29.94S
TORRINGTON     TSTM      56  53  90 NW17      29.91R FOG
PINE BLUFFS    CLOUDY    57  50  77 W7        29.90R

$$



USA.gov is the U.S. government's official web portal to all federal, state and local government web resources and services.